Wetterdaten: Sonntag, 07.02.2016
Datum Zeit Temp. A. Feuchte A. Luftdruck Regen Wind Richtung Richtung Sonnenschein ET UV Solar Taupunkt Windchill Windben Empfang
07.02.2016 00:00 0,8 C 97 % 1012,6 hPa 0,0 l/m 0,2 km/h (0 Bft) O-NO 65 0 min 0,000 mm 0,0 UV-I 0 W/m 0,4 C 0,8 C 1,6 km/h (1 Bft) 100,00 %
07.02.2016 00:05 0,9 C 98 % 1012,6 hPa 0,0 l/m 0,9 km/h (0 Bft) O-NO 65 0 min 0,000 mm 0,0 UV-I 0 W/m 0,6 C 0,9 C 3,2 km/h (1 Bft) 100,00 %
07.02.2016 00:10 0,5 C 97 % 1012,5 hPa 0,0 l/m 0,0 km/h (0 Bft) O-NO 65 0 min 0,000 mm 0,0 UV-I 0 W/m 0,1 C 0,5 C 0,0 km/h (0 Bft) 100,00 %
07.02.2016 00:15 0,3 C 97 % 1012,5 hPa 0,0 l/m 0,3 km/h (0 Bft) O-NO 65 0 min 0,000 mm 0,0 UV-I 0 W/m -0,1 C 0,3 C 1,6 km/h (1 Bft) 99,17 %
07.02.2016 00:20 0,5 C 97 % 1012,4 hPa 0,0 l/m 0,3 km/h (0 Bft) O-NO 65 0 min 0,000 mm 0,0 UV-I 0 W/m 0,1 C 0,5 C 1,6 km/h (1 Bft) 100,00 %
07.02.2016 00:25 0,5 C 97 % 1012,2 hPa 0,0 l/m 1,4 km/h (1 Bft) O-NO 65 0 min 0,000 mm 0,0 UV-I 0 W/m 0,1 C 0,5 C 4,8 km/h (1 Bft) 100,00 %
07.02.2016 00:30 1,1 C 98 % 1012,0 hPa 0,0 l/m 3,8 km/h (1 Bft) NO 51 0 min 0,000 mm 0,0 UV-I 0 W/m 0,8 C 1,1 C 4,8 km/h (1 Bft) 100,00 %
07.02.2016 00:35 1,1 C 98 % 1012,0 hPa 0,0 l/m 3,8 km/h (1 Bft) O-NO 71 0 min 0,000 mm 0,0 UV-I 0 W/m 0,8 C 1,1 C 6,4 km/h (2 Bft) 99,15 %
07.02.2016 00:40 0,8 C 98 % 1011,9 hPa 0,0 l/m 1,4 km/h (1 Bft) O-NO 72 0 min 0,000 mm 0,0 UV-I 0 W/m 0,5 C 0,8 C 3,2 km/h (1 Bft) 100,00 %
07.02.2016 00:45 1,1 C 97 % 1011,7 hPa 0,0 l/m 3,4 km/h (1 Bft) O-NO 71 0 min 0,000 mm 0,0 UV-I 0 W/m 0,7 C 1,1 C 6,4 km/h (2 Bft) 98,37 %
07.02.2016 00:50 1,3 C 98 % 1011,7 hPa 0,0 l/m 3,5 km/h (1 Bft) NO 40 0 min 0,000 mm 0,0 UV-I 0 W/m 1,0 C 1,3 C 6,4 km/h (2 Bft) 99,17 %
07.02.2016 00:55 1,4 C 97 % 1011,5 hPa 0,0 l/m 2,2 km/h (1 Bft) O-NO 65 0 min 0,000 mm 0,0 UV-I 0 W/m 1,0 C 1,4 C 4,8 km/h (1 Bft) 99,10 %
07.02.2016 01:00 0,8 C 96 % 1011,5 hPa 0,0 l/m 4,3 km/h (1 Bft) O 80 0 min 0,000 mm 0,0 UV-I 0 W/m 0,2 C 0,8 C 6,4 km/h (2 Bft) 100,00 %
07.02.2016 01:05 1,1 C 97 % 1011,5 hPa 0,0 l/m 4,0 km/h (1 Bft) O-NO 61 0 min 0,000 mm 0,0 UV-I 0 W/m 0,7 C 1,1 C 6,4 km/h (2 Bft) 100,00 %
07.02.2016 01:10 1,5 C 97 % 1011,4 hPa 0,0 l/m 3,0 km/h (1 Bft) O-NO 70 0 min 0,000 mm 0,0 UV-I 0 W/m 1,1 C 1,5 C 6,4 km/h (2 Bft) 97,50 %
07.02.2016 01:15 1,7 C 97 % 1011,4 hPa 0,0 l/m 4,5 km/h (1 Bft) NO 47 0 min 0,000 mm 0,0 UV-I 0 W/m 1,3 C 1,7 C 6,4 km/h (2 Bft) 97,52 %
07.02.2016 01:20 1,3 C 96 % 1011,3 hPa 0,0 l/m 3,4 km/h (1 Bft) NO 47 0 min 0,000 mm 0,0 UV-I 0 W/m 0,7 C 1,3 C 6,4 km/h (2 Bft) 96,69 %
07.02.2016 01:25 0,9 C 96 % 1011,2 hPa 0,0 l/m 1,9 km/h (1 Bft) NO 47 0 min 0,000 mm 0,0 UV-I 0 W/m 0,3 C 0,9 C 3,2 km/h (1 Bft) 98,25 %
07.02.2016 01:30 0,9 C 97 % 1011,0 hPa 0,0 l/m 3,1 km/h (1 Bft) NO 47 0 min 0,000 mm 0,0 UV-I 0 W/m 0,5 C 0,9 C 6,4 km/h (2 Bft) 97,52 %
07.02.2016 01:35 1,0 C 96 % 1011,1 hPa 0,0 l/m 4,1 km/h (1 Bft) O-NO 59 0 min 0,000 mm 0,0 UV-I 0 W/m 0,4 C 1,0 C 6,4 km/h (2 Bft) 96,49 %
07.02.2016 01:40 0,9 C 97 % 1011,1 hPa 0,0 l/m 1,4 km/h (1 Bft) O-NO 63 0 min 0,000 mm 0,0 UV-I 0 W/m 0,5 C 0,9 C 3,2 km/h (1 Bft) 97,46 %
07.02.2016 01:45 1,1 C 97 % 1010,8 hPa 0,0 l/m 1,5 km/h (1 Bft) O-NO 63 0 min 0,000 mm 0,0 UV-I 0 W/m 0,7 C 1,1 C 3,2 km/h (1 Bft) 98,17 %
07.02.2016 01:50 1,0 C 96 % 1010,9 hPa 0,0 l/m 0,5 km/h (0 Bft) O-NO 63 0 min 0,000 mm 0,0 UV-I 0 W/m 0,4 C 1,0 C 3,2 km/h (1 Bft) 99,17 %
07.02.2016 01:55 0,8 C 96 % 1010,8 hPa 0,0 l/m 0,3 km/h (0 Bft) O-NO 63 0 min 0,000 mm 0,0 UV-I 0 W/m 0,2 C 0,8 C 3,2 km/h (1 Bft) 98,35 %
07.02.2016 02:00 0,7 C 96 % 1010,6 hPa 0,0 l/m 1,4 km/h (1 Bft) O-NO 63 0 min 0,000 mm 0,0 UV-I 0 W/m 0,1 C 0,7 C 4,8 km/h (1 Bft) 100,00 %
07.02.2016 02:05 0,6 C 97 % 1010,6 hPa 0,0 l/m 2,7 km/h (1 Bft) O-NO 63 0 min 0,000 mm 0,0 UV-I 0 W/m 0,2 C 0,6 C 4,8 km/h (1 Bft) 99,15 %
07.02.2016 02:10 0,4 C 96 % 1010,5 hPa 0,0 l/m 1,4 km/h (1 Bft) O-NO 63 0 min 0,000 mm 0,0 UV-I 0 W/m -0,2 C 0,4 C 3,2 km/h (1 Bft) 97,17 %
07.02.2016 02:15 0,4 C 97 % 1010,5 hPa 0,0 l/m 0,8 km/h (0 Bft) O-NO 63 0 min 0,000 mm 0,0 UV-I 0 W/m -0,0 C 0,4 C 3,2 km/h (1 Bft) 99,18 %
07.02.2016 02:20 -0,2 C 96 % 1010,4 hPa 0,0 l/m 0,7 km/h (0 Bft) O-NO 63 0 min 0,000 mm 0,0 UV-I 0 W/m -0,8 C -0,2 C 3,2 km/h (1 Bft) 99,17 %
07.02.2016 02:25 -0,2 C 97 % 1010,1 hPa 0,0 l/m 2,4 km/h (1 Bft) O-NO 63 0 min 0,000 mm 0,0 UV-I 0 W/m -0,6 C -0,2 C 4,8 km/h (1 Bft) 99,15 %
07.02.2016 02:30 0,2 C 97 % 1009,8 hPa 0,0 l/m 4,7 km/h (1 Bft) O-NO 57 0 min 0,000 mm 0,0 UV-I 0 W/m -0,2 C 0,2 C 11,3 km/h (2 Bft) 98,29 %
07.02.2016 02:35 0,5 C 97 % 1009,9 hPa 0,0 l/m 5,1 km/h (1 Bft) O-NO 59 0 min 0,000 mm 0,0 UV-I 0 W/m 0,1 C 0,5 C 9,7 km/h (2 Bft) 99,15 %
07.02.2016 02:40 0,4 C 97 % 1009,9 hPa 0,0 l/m 2,7 km/h (1 Bft) NO 56 0 min 0,000 mm 0,0 UV-I 0 W/m -0,0 C 0,4 C 4,8 km/h (1 Bft) 100,00 %
07.02.2016 02:45 0,1 C 97 % 1010,0 hPa 0,0 l/m 1,8 km/h (1 Bft) W-NW 295 0 min 0,000 mm 0,0 UV-I 0 W/m -0,3 C 0,1 C 4,8 km/h (1 Bft) 97,50 %
07.02.2016 02:50 -0,1 C 97 % 1009,9 hPa 0,0 l/m 1,6 km/h (1 Bft) NW 306 0 min 0,000 mm 0,0 UV-I 0 W/m -0,5 C -0,1 C 3,2 km/h (1 Bft) 98,17 %
07.02.2016 02:55 -0,4 C 97 % 1009,7 hPa 0,0 l/m 1,6 km/h (1 Bft) O-NO 78 0 min 0,000 mm 0,0 UV-I 0 W/m -0,8 C -0,4 C 4,8 km/h (1 Bft) 99,15 %
07.02.2016 03:00 -0,2 C 97 % 1009,5 hPa 0,0 l/m 3,0 km/h (1 Bft) O-NO 59 0 min 0,000 mm 0,0 UV-I 0 W/m -0,6 C -0,2 C 4,8 km/h (1 Bft) 99,15 %
07.02.2016 03:05 -0,2 C 97 % 1009,6 hPa 0,0 l/m 4,8 km/h (1 Bft) O-NO 70 0 min 0,000 mm 0,0 UV-I 0 W/m -0,6 C -0,2 C 8,0 km/h (2 Bft) 99,15 %
07.02.2016 03:10 -0,4 C 97 % 1009,5 hPa 0,0 l/m 2,0 km/h (1 Bft) NW 326 0 min 0,000 mm 0,0 UV-I 0 W/m -0,8 C -0,4 C 4,8 km/h (1 Bft) 100,00 %
07.02.2016 03:15 -0,8 C 97 % 1009,6 hPa 0,0 l/m 1,6 km/h (1 Bft) NW 310 0 min 0,000 mm 0,0 UV-I 0 W/m -1,2 C -0,8 C 4,8 km/h (1 Bft) 99,11 %
07.02.2016 03:20 -0,7 C 97 % 1009,5 hPa 0,0 l/m 4,0 km/h (1 Bft) O-SO 117 0 min 0,000 mm 0,0 UV-I 0 W/m -1,1 C -0,7 C 9,7 km/h (2 Bft) 99,15 %
07.02.2016 03:25 -0,8 C 97 % 1009,5 hPa 0,0 l/m 2,0 km/h (1 Bft) O-SO 115 0 min 0,000 mm 0,0 UV-I 0 W/m -1,2 C -0,8 C 6,4 km/h (2 Bft) 96,67 %
07.02.2016 03:30 -0,8 C 97 % 1009,4 hPa 0,0 l/m 0,8 km/h (0 Bft) O 85 0 min 0,000 mm 0,0 UV-I 0 W/m -1,2 C -0,8 C 3,2 km/h (1 Bft) 96,43 %
07.02.2016 03:35 -0,6 C 97 % 1009,3 hPa 0,0 l/m 0,8 km/h (0 Bft) O-NO 61 0 min 0,000 mm 0,0 UV-I 0 W/m -1,0 C -0,6 C 3,2 km/h (1 Bft) 96,23 %
07.02.2016 03:40 -0,6 C 98 % 1009,3 hPa 0,0 l/m 0,3 km/h (0 Bft) O-NO 61 0 min 0,000 mm 0,0 UV-I 0 W/m -0,9 C -0,6 C 1,6 km/h (1 Bft) 96,30 %
07.02.2016 03:45 -0,7 C 98 % 1009,4 hPa 0,0 l/m 1,8 km/h (1 Bft) O-NO 61 0 min 0,000 mm 0,0 UV-I 0 W/m -1,0 C -0,7 C 4,8 km/h (1 Bft) 96,61 %
07.02.2016 03:50 -0,7 C 97 % 1009,5 hPa 0,0 l/m 0,6 km/h (0 Bft) O-NO 61 0 min 0,000 mm 0,0 UV-I 0 W/m -1,1 C -0,7 C 1,6 km/h (1 Bft) 96,58 %
07.02.2016 03:55 -0,7 C 98 % 1009,3 hPa 0,0 l/m 0,8 km/h (0 Bft) NO 44 0 min 0,000 mm 0,0 UV-I 0 W/m -1,0 C -0,7 C 3,2 km/h (1 Bft) 96,61 %
07.02.2016 04:00 -0,8 C 97 % 1009,3 hPa 0,0 l/m 0,8 km/h (0 Bft) O-NO 74 0 min 0,000 mm 0,0 UV-I 0 W/m -1,2 C -0,8 C 3,2 km/h (1 Bft) 96,58 %
07.02.2016 04:05 -0,8 C 98 % 1009,3 hPa 0,0 l/m 1,1 km/h (1 Bft) O-NO 74 0 min 0,000 mm 0,0 UV-I 0 W/m -1,1 C -0,8 C 3,2 km/h (1 Bft) 97,22 %
07.02.2016 04:10 -0,8 C 97 % 1009,3 hPa 0,0 l/m 0,3 km/h (0 Bft) O 99 0 min 0,000 mm 0,0 UV-I 0 W/m -1,2 C -0,8 C 1,6 km/h (1 Bft) 98,17 %
07.02.2016 04:15 -0,7 C 98 % 1009,3 hPa 0,0 l/m 1,2 km/h (1 Bft) O 99 0 min 0,000 mm 0,0 UV-I 0 W/m -1,0 C -0,7 C 3,2 km/h (1 Bft) 98,29 %
07.02.2016 04:20 -0,9 C 98 % 1009,3 hPa 0,0 l/m 2,1 km/h (1 Bft) S-SO 157 0 min 0,000 mm 0,0 UV-I 0 W/m -1,2 C -0,9 C 4,8 km/h (1 Bft) 100,00 %
07.02.2016 04:25 -1,2 C 97 % 1009,3 hPa 0,0 l/m 1,2 km/h (1 Bft) S-SO 157 0 min 0,000 mm 0,0 UV-I 0 W/m -1,6 C -1,2 C 3,2 km/h (1 Bft) 98,35 %
07.02.2016 04:30 -1,3 C 97 % 1009,3 hPa 0,0 l/m 0,5 km/h (0 Bft) S-SO 157 0 min 0,000 mm 0,0 UV-I 0 W/m -1,7 C -1,3 C 1,6 km/h (1 Bft) 98,31 %
07.02.2016 04:35 -1,3 C 98 % 1009,4 hPa 0,0 l/m 2,9 km/h (1 Bft) S-SW 205 0 min 0,000 mm 0,0 UV-I 0 W/m -1,6 C -1,3 C 4,8 km/h (1 Bft) 99,15 %
07.02.2016 04:40 -1,3 C 97 % 1009,3 hPa 0,0 l/m 5,1 km/h (1 Bft) S 191 0 min 0,000 mm 0,0 UV-I 0 W/m -1,7 C -1,3 C 6,4 km/h (2 Bft) 99,08 %
07.02.2016 04:45 -1,3 C 97 % 1009,4 hPa 0,0 l/m 2,1 km/h (1 Bft) S 169 0 min 0,000 mm 0,0 UV-I 0 W/m -1,7 C -1,3 C 6,4 km/h (2 Bft) 100,00 %
07.02.2016 04:50 -1,2 C 98 % 1009,3 hPa 0,0 l/m 0,3 km/h (0 Bft) S 169 0 min 0,000 mm 0,0 UV-I 0 W/m -1,5 C -1,2 C 1,6 km/h (1 Bft) 99,15 %
07.02.2016 04:55 -1,1 C 98 % 1009,3 hPa 0,0 l/m 2,4 km/h (1 Bft) S 169 0 min 0,000 mm 0,0 UV-I 0 W/m -1,4 C -1,1 C 6,4 km/h (2 Bft) 97,56 %
07.02.2016 05:00 -1,1 C 98 % 1009,3 hPa 0,0 l/m 3,5 km/h (1 Bft) S 169 0 min 0,000 mm 0,0 UV-I 0 W/m -1,4 C -1,1 C 6,4 km/h (2 Bft) 100,00 %
07.02.2016 05:05 -1,2 C 98 % 1009,3 hPa 0,0 l/m 2,7 km/h (1 Bft) S 173 0 min 0,000 mm 0,0 UV-I 0 W/m -1,5 C -1,2 C 6,4 km/h (2 Bft) 99,15 %
07.02.2016 05:10 -1,3 C 97 % 1009,4 hPa 0,0 l/m 2,6 km/h (1 Bft) SW 214 0 min 0,000 mm 0,0 UV-I 0 W/m -1,7 C -1,3 C 4,8 km/h (1 Bft) 99,05 %
07.02.2016 05:15 -1,5 C 98 % 1009,3 hPa 0,0 l/m 3,0 km/h (1 Bft) S-SW 213 0 min 0,000 mm 0,0 UV-I 0 W/m -1,8 C -1,5 C 4,8 km/h (1 Bft) 98,31 %
07.02.2016 05:20 -1,6 C 98 % 1009,3 hPa 0,0 l/m 4,8 km/h (1 Bft) W-SW 254 0 min 0,000 mm 0,0 UV-I 0 W/m -1,9 C -1,6 C 8,0 km/h (2 Bft) 98,35 %
07.02.2016 05:25 -1,6 C 97 % 1009,2 hPa 0,0 l/m 4,1 km/h (1 Bft) S 170 0 min 0,000 mm 0,0 UV-I 0 W/m -2,0 C -1,6 C 8,0 km/h (2 Bft) 99,17 %
07.02.2016 05:30 -1,7 C 97 % 1009,3 hPa 0,0 l/m 1,9 km/h (1 Bft) S 170 0 min 0,000 mm 0,0 UV-I 0 W/m -2,1 C -1,7 C 3,2 km/h (1 Bft) 99,15 %
07.02.2016 05:35 -1,7 C 97 % 1009,2 hPa 0,0 l/m 2,5 km/h (1 Bft) SW 221 0 min 0,000 mm 0,0 UV-I 0 W/m -2,1 C -1,7 C 4,8 km/h (1 Bft) 96,58 %
07.02.2016 05:40 -1,8 C 98 % 1009,3 hPa 0,0 l/m 4,4 km/h (1 Bft) S 190 0 min 0,000 mm 0,0 UV-I 0 W/m -2,1 C -1,8 C 6,4 km/h (2 Bft) 96,61 %
07.02.2016 05:45 -1,8 C 98 % 1009,2 hPa 0,0 l/m 3,9 km/h (1 Bft) S-SW 202 0 min 0,000 mm 0,0 UV-I 0 W/m -2,1 C -1,8 C 6,4 km/h (2 Bft) 93,22 %
07.02.2016 05:50 -1,9 C 97 % 1009,3 hPa 0,0 l/m 4,6 km/h (1 Bft) S-SW 206 0 min 0,000 mm 0,0 UV-I 0 W/m -2,3 C -1,9 C 6,4 km/h (2 Bft) 96,19 %
07.02.2016 05:55 -2,0 C 97 % 1009,2 hPa 0,0 l/m 4,8 km/h (1 Bft) S-SW 199 0 min 0,000 mm 0,0 UV-I 0 W/m -2,4 C -2,0 C 6,4 km/h (2 Bft) 96,69 %
07.02.2016 06:00 -2,1 C 98 % 1009,2 hPa 0,0 l/m 5,0 km/h (1 Bft) S-SW 194 0 min 0,000 mm 0,0 UV-I 0 W/m -2,4 C -2,1 C 8,0 km/h (2 Bft) 95,76 %
07.02.2016 06:05 -2,1 C 98 % 1009,2 hPa 0,0 l/m 4,4 km/h (1 Bft) S-SW 202 0 min 0,000 mm 0,0 UV-I 0 W/m -2,4 C -2,1 C 6,4 km/h (2 Bft) 98,29 %
07.02.2016 06:10 -2,2 C 97 % 1009,2 hPa 0,0 l/m 4,3 km/h (1 Bft) S-SW 209 0 min 0,000 mm 0,0 UV-I 0 W/m -2,6 C -2,2 C 6,4 km/h (2 Bft) 97,58 %
07.02.2016 06:15 -2,2 C 97 % 1009,2 hPa 0,0 l/m 3,6 km/h (1 Bft) S-SW 206 0 min 0,000 mm 0,0 UV-I 0 W/m -2,6 C -2,2 C 6,4 km/h (2 Bft) 98,29 %
07.02.2016 06:20 -2,2 C 97 % 1009,2 hPa 0,0 l/m 4,6 km/h (1 Bft) S-SW 196 0 min 0,000 mm 0,0 UV-I 0 W/m -2,6 C -2,2 C 6,4 km/h (2 Bft) 99,06 %
07.02.2016 06:25 -2,2 C 97 % 1009,3 hPa 0,0 l/m 2,3 km/h (1 Bft) S-SW 196 0 min 0,000 mm 0,0 UV-I 0 W/m -2,6 C -2,2 C 4,8 km/h (1 Bft) 98,35 %
07.02.2016 06:30 -2,3 C 97 % 1009,2 hPa 0,0 l/m 3,2 km/h (1 Bft) S-SW 192 0 min 0,000 mm 0,0 UV-I 0 W/m -2,7 C -2,3 C 6,4 km/h (2 Bft) 99,15 %
07.02.2016 06:35 -2,3 C 97 % 1009,3 hPa 0,0 l/m 2,6 km/h (1 Bft) S 178 0 min 0,000 mm 0,0 UV-I 0 W/m -2,7 C -2,3 C 4,8 km/h (1 Bft) 97,46 %
07.02.2016 06:40 -2,3 C 97 % 1009,3 hPa 0,0 l/m 2,2 km/h (1 Bft) S 178 0 min 0,000 mm 0,0 UV-I 0 W/m -2,7 C -2,3 C 4,8 km/h (1 Bft) 97,52 %
07.02.2016 06:45 -2,3 C 98 % 1009,3 hPa 0,0 l/m 1,6 km/h (1 Bft) S 178 0 min 0,000 mm 0,0 UV-I 0 W/m -2,6 C -2,3 C 4,8 km/h (1 Bft) 98,29 %
07.02.2016 06:50 -2,3 C 98 % 1009,3 hPa 0,0 l/m 3,5 km/h (1 Bft) S 175 0 min 0,000 mm 0,0 UV-I 0 W/m -2,6 C -2,3 C 4,8 km/h (1 Bft) 100,00 %
07.02.2016 06:55 -2,3 C 98 % 1009,2 hPa 0,0 l/m 2,5 km/h (1 Bft) S 178 0 min 0,000 mm 0,0 UV-I 0 W/m -2,6 C -2,3 C 6,4 km/h (2 Bft) 100,00 %
07.02.2016 07:00 -2,3 C 98 % 1009,2 hPa 0,0 l/m 3,6 km/h (1 Bft) S-SW 192 0 min 0,000 mm 0,0 UV-I 0 W/m -2,6 C -2,3 C 6,4 km/h (2 Bft) 98,11 %
07.02.2016 07:05 -2,3 C 98 % 1009,3 hPa 0,0 l/m 1,9 km/h (1 Bft) S-SW 192 0 min 0,000 mm 0,0 UV-I 0 W/m -2,6 C -2,3 C 4,8 km/h (1 Bft) 99,15 %
07.02.2016 07:10 -2,4 C 98 % 1009,3 hPa 0,0 l/m 1,1 km/h (1 Bft) S-SW 192 0 min 0,000 mm 0,0 UV-I 0 W/m -2,7 C -2,4 C 3,2 km/h (1 Bft) 100,00 %
07.02.2016 07:15 -2,4 C 98 % 1009,5 hPa 0,0 l/m 2,0 km/h (1 Bft) S-SW 192 0 min 0,000 mm 0,0 UV-I 0 W/m -2,7 C -2,4 C 6,4 km/h (2 Bft) 99,15 %
07.02.2016 07:20 -2,4 C 97 % 1009,4 hPa 0,0 l/m 1,9 km/h (1 Bft) S 188 0 min 0,000 mm 0,0 UV-I 0 W/m -2,8 C -2,4 C 4,8 km/h (1 Bft) 100,00 %
07.02.2016 07:25 -2,6 C 97 % 1009,5 hPa 0,0 l/m 1,3 km/h (1 Bft) S 188 0 min 0,000 mm 0,0 UV-I 0 W/m -3,0 C -2,6 C 3,2 km/h (1 Bft) 99,15 %
07.02.2016 07:30 -2,5 C 97 % 1009,5 hPa 0,0 l/m 3,0 km/h (1 Bft) S-SO 158 0 min 0,000 mm 0,0 UV-I 2 W/m -2,9 C -2,5 C 8,0 km/h (2 Bft) 99,17 %
07.02.2016 07:35 -2,4 C 98 % 1009,6 hPa 0,0 l/m 2,0 km/h (1 Bft) S-SO 157 0 min 0,000 mm 0,0 UV-I 6 W/m -2,7 C -2,4 C 4,8 km/h (1 Bft) 98,33 %
07.02.2016 07:40 -2,4 C 98 % 1009,5 hPa 0,0 l/m 1,2 km/h (1 Bft) S-SO 157 0 min 0,000 mm 0,0 UV-I 10 W/m -2,7 C -2,4 C 3,2 km/h (1 Bft) 97,46 %
07.02.2016 07:45 -2,5 C 97 % 1009,6 hPa 0,0 l/m 2,1 km/h (1 Bft) S-SO 168 0 min 0,000 mm 0,0 UV-I 17 W/m -2,9 C -2,5 C 3,2 km/h (1 Bft) 97,25 %
07.02.2016 07:50 -2,5 C 97 % 1009,7 hPa 0,0 l/m 1,2 km/h (1 Bft) S-SO 168 0 min 0,000 mm 0,0 UV-I 19 W/m -2,9 C -2,5 C 3,2 km/h (1 Bft) 94,87 %
07.02.2016 07:55 -2,5 C 97 % 1009,8 hPa 0,0 l/m 2,1 km/h (1 Bft) S-SO 168 0 min 0,000 mm 0,0 UV-I 22 W/m -2,9 C -2,5 C 3,2 km/h (1 Bft) 96,61 %
07.02.2016 08:00 -2,5 C 97 % 1009,7 hPa 0,0 l/m 1,9 km/h (1 Bft) S-SO 168 0 min 0,000 mm 0,0 UV-I 26 W/m -2,9 C -2,5 C 6,4 km/h (2 Bft) 97,46 %
07.02.2016 08:05 -2,4 C 98 % 1009,5 hPa 0,0 l/m 0,2 km/h (0 Bft) S-SO 168 0 min 0,000 mm 0,0 UV-I 30 W/m -2,7 C -2,4 C 1,6 km/h (1 Bft) 97,50 %
07.02.2016 08:10 -2,4 C 97 % 1009,6 hPa 0,0 l/m 1,6 km/h (1 Bft) S-SO 168 0 min 0,000 mm 0,0 UV-I 37 W/m -2,8 C -2,4 C 3,2 km/h (1 Bft) 95,76 %
07.02.2016 08:15 -2,4 C 98 % 1009,8 hPa 0,0 l/m 3,0 km/h (1 Bft) S-SW 202 0 min 0,000 mm 0,0 UV-I 42 W/m -2,7 C -2,4 C 4,8 km/h (1 Bft) 97,50 %
07.02.2016 08:20 -2,3 C 98 % 1009,8 hPa 0,0 l/m 2,7 km/h (1 Bft) S-SW 202 0 min 0,000 mm 0,0 UV-I 47 W/m -2,6 C -2,3 C 4,8 km/h (1 Bft) 97,17 %
07.02.2016 08:25 -2,2 C 97 % 1009,8 hPa 0,0 l/m 2,1 km/h (1 Bft) S-SW 202 0 min 0,000 mm 0,0 UV-I 48 W/m -2,6 C -2,2 C 4,8 km/h (1 Bft) 100,00 %
07.02.2016 08:30 -2,2 C 97 % 1009,8 hPa 0,0 l/m 2,7 km/h (1 Bft) S-SW 202 0 min 0,000 mm 0,0 UV-I 50 W/m -2,6 C -2,2 C 3,2 km/h (1 Bft) 100,00 %
07.02.2016 08:35 -2,1 C 97 % 1009,7 hPa 0,0 l/m 1,2 km/h (1 Bft) S-SW 202 0 min 0,000 mm 0,0 UV-I 52 W/m -2,5 C -2,1 C 3,2 km/h (1 Bft) 99,16 %
07.02.2016 08:40 -2,1 C 98 % 1009,7 hPa 0,0 l/m 1,0 km/h (0 Bft) S-SW 202 0 min 0,000 mm 0,0 UV-I 54 W/m -2,4 C -2,1 C 3,2 km/h (1 Bft) 99,15 %
07.02.2016 08:45 -1,9 C 97 % 1009,5 hPa 0,0 l/m 0,4 km/h (0 Bft) S-SW 202 0 min 0,000 mm 0,0 UV-I 62 W/m -2,3 C -1,9 C 1,6 km/h (1 Bft) 100,00 %
07.02.2016 08:50 -1,9 C 98 % 1009,5 hPa 0,0 l/m 1,9 km/h (1 Bft) S-SW 202 0 min 0,000 mm 0,0 UV-I 66 W/m -2,2 C -1,9 C 4,8 km/h (1 Bft) 99,17 %
07.02.2016 08:55 -1,8 C 98 % 1009,4 hPa 0,0 l/m 0,2 km/h (0 Bft) S-SW 202 0 min 0,000 mm 0,0 UV-I 73 W/m -2,1 C -1,8 C 3,2 km/h (1 Bft) 100,00 %
07.02.2016 09:00 -1,7 C 98 % 1009,5 hPa 0,0 l/m 0,8 km/h (0 Bft) S-SW 202 0 min 0,025 mm 0,0 UV-I 86 W/m -2,0 C -1,7 C 3,2 km/h (1 Bft) 99,17 %
07.02.2016 09:05 -1,6 C 97 % 1009,3 hPa 0,0 l/m 0,0 km/h (0 Bft) S-SW 202 0 min 0,000 mm 0,0 UV-I 81 W/m -2,0 C -1,6 C 1,6 km/h (1 Bft) 98,35 %
07.02.2016 09:10 -1,4 C 98 % 1009,3 hPa 0,0 l/m 0,0 km/h (0 Bft) S-SW 202 0 min 0,000 mm 0,0 UV-I 81 W/m -1,7 C -1,4 C 1,6 km/h (1 Bft) 98,33 %
07.02.2016 09:15 -1,3 C 97 % 1009,3 hPa 0,0 l/m 0,2 km/h (0 Bft) S-SW 202 0 min 0,000 mm 0,0 UV-I 79 W/m -1,7 C -1,3 C 1,6 km/h (1 Bft) 97,46 %
07.02.2016 09:20 -1,1 C 98 % 1009,2 hPa 0,0 l/m 0,7 km/h (0 Bft) S-SW 202 0 min 0,000 mm 0,0 UV-I 87 W/m -1,4 C -1,1 C 3,2 km/h (1 Bft) 98,29 %
07.02.2016 09:25 -1,0 C 98 % 1009,2 hPa 0,0 l/m 0,0 km/h (0 Bft) S-SW 202 0 min 0,000 mm 0,0 UV-I 113 W/m -1,3 C -1,0 C 1,6 km/h (1 Bft) 96,61 %
07.02.2016 09:30 -0,9 C 98 % 1009,2 hPa 0,0 l/m 0,8 km/h (0 Bft) S-SW 202 0 min 0,000 mm 0,0 UV-I 149 W/m -1,2 C -0,9 C 3,2 km/h (1 Bft) 98,31 %
07.02.2016 09:35 -0,7 C 98 % 1009,1 hPa 0,0 l/m 1,6 km/h (1 Bft) S-SW 201 0 min 0,000 mm 0,0 UV-I 146 W/m -1,0 C -0,7 C 4,8 km/h (1 Bft) 98,11 %
07.02.2016 09:40 -0,3 C 98 % 1009,1 hPa 0,0 l/m 2,7 km/h (1 Bft) NO 42 0 min 0,000 mm 0,0 UV-I 160 W/m -0,6 C -0,3 C 6,4 km/h (2 Bft) 97,56 %
07.02.2016 09:45 -0,2 C 98 % 1009,1 hPa 0,0 l/m 2,4 km/h (1 Bft) NO 42 0 min 0,000 mm 0,3 UV-I 164 W/m -0,5 C -0,2 C 4,8 km/h (1 Bft) 96,61 %
07.02.2016 09:50 0,1 C 98 % 1009,1 hPa 0,0 l/m 3,6 km/h (1 Bft) NO 38 5 min 0,000 mm 0,5 UV-I 193 W/m -0,2 C 0,1 C 6,4 km/h (2 Bft) 97,44 %
07.02.2016 09:55 0,3 C 98 % 1009,1 hPa 0,0 l/m 2,9 km/h (1 Bft) N-NO 30 5 min 0,000 mm 0,5 UV-I 225 W/m 0,0 C 0,3 C 6,4 km/h (2 Bft) 97,32 %
07.02.2016 10:00 0,6 C 98 % 1009,0 hPa 0,0 l/m 3,3 km/h (1 Bft) NO 55 5 min 0,000 mm 0,5 UV-I 230 W/m 0,3 C 0,6 C 6,4 km/h (2 Bft) 96,61 %
07.02.2016 10:05 0,7 C 98 % 1009,1 hPa 0,0 l/m 6,9 km/h (2 Bft) NO 53 5 min 0,051 mm 0,6 UV-I 202 W/m 0,4 C 0,2 C 12,9 km/h (3 Bft) 98,33 %
07.02.2016 10:10 0,8 C 97 % 1009,0 hPa 0,0 l/m 7,3 km/h (2 Bft) NO 55 0 min 0,000 mm 0,5 UV-I 165 W/m 0,4 C -0,1 C 9,7 km/h (2 Bft) 98,31 %
07.02.2016 10:15 0,9 C 97 % 1009,1 hPa 0,0 l/m 6,8 km/h (2 Bft) O-NO 64 0 min 0,000 mm 0,6 UV-I 163 W/m 0,5 C 0,5 C 12,9 km/h (3 Bft) 99,17 %
07.02.2016 10:20 1,1 C 97 % 1009,0 hPa 0,0 l/m 7,9 km/h (2 Bft) O-NO 57 0 min 0,000 mm 0,6 UV-I 171 W/m 0,7 C -0,4 C 14,5 km/h (3 Bft) 99,08 %
07.02.2016 10:25 1,1 C 96 % 1009,1 hPa 0,0 l/m 7,8 km/h (2 Bft) O-NO 62 0 min 0,000 mm 0,6 UV-I 162 W/m 0,5 C -0,3 C 16,1 km/h (3 Bft) 99,15 %
07.02.2016 10:30 1,2 C 96 % 1009,0 hPa 0,0 l/m 9,5 km/h (2 Bft) NO 42 0 min 0,000 mm 0,6 UV-I 177 W/m 0,6 C -1,7 C 16,1 km/h (3 Bft) 99,15 %
07.02.2016 10:35 1,3 C 96 % 1008,9 hPa 0,0 l/m 9,2 km/h (2 Bft) NO 53 0 min 0,000 mm 0,6 UV-I 181 W/m 0,7 C -1,4 C 16,1 km/h (3 Bft) 99,19 %
07.02.2016 10:40 1,4 C 96 % 1008,9 hPa 0,0 l/m 9,3 km/h (2 Bft) NO 50 0 min 0,000 mm 0,7 UV-I 190 W/m 0,8 C -1,3 C 14,5 km/h (3 Bft) 98,17 %
07.02.2016 10:45 1,6 C 96 % 1009,0 hPa 0,0 l/m 7,6 km/h (2 Bft) NO 42 0 min 0,000 mm 0,7 UV-I 194 W/m 1,0 C 0,4 C 14,5 km/h (3 Bft) 95,73 %
07.02.2016 10:50 1,7 C 95 % 1009,1 hPa 0,0 l/m 6,4 km/h (2 Bft) O-NO 59 0 min 0,000 mm 0,7 UV-I 168 W/m 1,0 C 1,7 C 14,5 km/h (3 Bft) 100,00 %
07.02.2016 10:55 1,7 C 95 % 1009,0 hPa 0,0 l/m 7,8 km/h (2 Bft) O-NO 62 0 min 0,000 mm 0,7 UV-I 181 W/m 1,0 C 0,3 C 14,5 km/h (3 Bft) 100,00 %
07.02.2016 11:00 1,8 C 95 % 1008,9 hPa 0,0 l/m 6,0 km/h (2 Bft) NO 55 0 min 0,051 mm 0,7 UV-I 176 W/m 1,1 C 1,8 C 8,0 km/h (2 Bft) 99,15 %
07.02.2016 11:05 1,9 C 95 % 1008,8 hPa 0,0 l/m 7,7 km/h (2 Bft) NO 49 0 min 0,000 mm 0,8 UV-I 161 W/m 1,2 C 0,6 C 11,3 km/h (2 Bft) 100,00 %
07.02.2016 11:10 1,9 C 95 % 1008,8 hPa 0,0 l/m 8,0 km/h (2 Bft) O-NO 65 0 min 0,000 mm 0,8 UV-I 178 W/m 1,2 C 0,3 C 12,9 km/h (3 Bft) 100,00 %
07.02.2016 11:15 2,1 C 95 % 1008,7 hPa 0,0 l/m 9,9 km/h (2 Bft) N-NO 32 0 min 0,000 mm 0,8 UV-I 186 W/m 1,4 C -1,1 C 14,5 km/h (3 Bft) 99,08 %
07.02.2016 11:20 2,3 C 95 % 1008,7 hPa 0,0 l/m 9,6 km/h (2 Bft) O-NO 71 0 min 0,000 mm 0,9 UV-I 219 W/m 1,6 C -0,6 C 16,1 km/h (3 Bft) 95,87 %
07.02.2016 11:25 2,6 C 95 % 1008,6 hPa 0,0 l/m 9,5 km/h (2 Bft) NO 56 5 min 0,000 mm 1,0 UV-I 266 W/m 1,9 C -0,2 C 14,5 km/h (3 Bft) 96,67 %
07.02.2016 11:30 2,8 C 94 % 1008,5 hPa 0,0 l/m 7,1 km/h (2 Bft) O-NO 61 5 min 0,000 mm 1,0 UV-I 288 W/m 1,9 C 2,1 C 12,9 km/h (3 Bft) 97,30 %
07.02.2016 11:35 2,9 C 93 % 1008,5 hPa 0,0 l/m 8,6 km/h (2 Bft) NO 42 5 min 0,000 mm 1,0 UV-I 265 W/m 1,9 C 0,9 C 14,5 km/h (3 Bft) 98,31 %
07.02.2016 11:40 3,1 C 93 % 1008,5 hPa 0,0 l/m 6,6 km/h (2 Bft) O-NO 59 5 min 0,000 mm 1,0 UV-I 259 W/m 2,1 C 2,9 C 12,9 km/h (3 Bft) 95,73 %
07.02.2016 11:45 3,3 C 93 % 1008,5 hPa 0,0 l/m 6,4 km/h (2 Bft) NO 36 5 min 0,000 mm 1,0 UV-I 290 W/m 2,3 C 3,3 C 12,9 km/h (3 Bft) 100,00 %
07.02.2016 11:50 3,4 C 93 % 1008,3 hPa 0,0 l/m 9,1 km/h (2 Bft) O-NO 58 5 min 0,000 mm 1,1 UV-I 326 W/m 2,4 C 1,0 C 12,9 km/h (3 Bft) 99,17 %
07.02.2016 11:55 3,6 C 92 % 1008,2 hPa 0,0 l/m 8,7 km/h (2 Bft) O-NO 60 5 min 0,000 mm 1,1 UV-I 317 W/m 2,4 C 1,5 C 12,9 km/h (3 Bft) 100,00 %
07.02.2016 12:00 3,7 C 92 % 1008,2 hPa 0,0 l/m 6,2 km/h (2 Bft) O-NO 63 5 min 0,000 mm 1,1 UV-I 312 W/m 2,5 C 3,7 C 12,9 km/h (3 Bft) 100,00 %
07.02.2016 12:10 4,0 C 91 % 1008,0 hPa 0,0 l/m 5,8 km/h (2 Bft) NO 55 10 min 0,102 mm 1,2 UV-I 356 W/m 2,7 C 4,0 C 8,0 km/h (2 Bft) 99,24 %
07.02.2016 12:15 4,2 C 90 % 1008,0 hPa 0,0 l/m 7,1 km/h (2 Bft) NO 42 5 min 0,000 mm 1,2 UV-I 369 W/m 2,7 C 3,6 C 9,7 km/h (2 Bft) 100,00 %
07.02.2016 12:20 4,5 C 90 % 1007,8 hPa 0,0 l/m 8,6 km/h (2 Bft) O 84 5 min 0,000 mm 1,3 UV-I 426 W/m 3,0 C 2,6 C 14,5 km/h (3 Bft) 100,00 %
07.02.2016 12:25 4,8 C 90 % 1007,7 hPa 0,0 l/m 8,7 km/h (2 Bft) NO 53 5 min 0,000 mm 1,3 UV-I 419 W/m 3,3 C 2,8 C 16,1 km/h (3 Bft) 98,35 %
07.02.2016 12:30 4,9 C 89 % 1007,7 hPa 0,0 l/m 8,0 km/h (2 Bft) O 80 5 min 0,000 mm 1,2 UV-I 365 W/m 3,2 C 3,5 C 12,9 km/h (3 Bft) 99,06 %
07.02.2016 12:35 4,7 C 89 % 1007,6 hPa 0,0 l/m 7,7 km/h (2 Bft) NO 48 0 min 0,000 mm 1,0 UV-I 217 W/m 3,0 C 3,5 C 16,1 km/h (3 Bft) 99,20 %
07.02.2016 12:40 4,7 C 89 % 1007,4 hPa 0,0 l/m 8,6 km/h (2 Bft) O-NO 57 0 min 0,000 mm 1,1 UV-I 219 W/m 3,0 C 2,8 C 14,5 km/h (3 Bft) 98,17 %
07.02.2016 12:45 5,1 C 90 % 1007,3 hPa 0,0 l/m 8,4 km/h (2 Bft) NO 45 5 min 0,000 mm 1,3 UV-I 436 W/m 3,6 C 3,4 C 12,9 km/h (3 Bft) 96,90 %
07.02.2016 12:50 5,3 C 88 % 1007,3 hPa 0,0 l/m 8,0 km/h (2 Bft) O 80 5 min 0,000 mm 1,3 UV-I 479 W/m 3,5 C 3,9 C 14,5 km/h (3 Bft) 98,21 %
07.02.2016 12:55 5,5 C 88 % 1007,1 hPa 0,0 l/m 9,6 km/h (2 Bft) O 84 5 min 0,000 mm 1,3 UV-I 481 W/m 3,7 C 2,9 C 16,1 km/h (3 Bft) 96,61 %
07.02.2016 13:00 5,7 C 87 % 1007,0 hPa 0,0 l/m 12,4 km/h (3 Bft) NO 38 5 min 0,152 mm 1,3 UV-I 479 W/m 3,7 C 1,3 C 17,7 km/h (3 Bft) 95,61 %
07.02.2016 13:05 5,9 C 86 % 1006,9 hPa 0,0 l/m 13,5 km/h (3 Bft) O-NO 57 5 min 0,000 mm 1,3 UV-I 501 W/m 3,7 C 0,9 C 20,9 km/h (4 Bft) 97,52 %
07.02.2016 13:10 6,1 C 86 % 1006,8 hPa 0,0 l/m 13,4 km/h (3 Bft) NO 36 5 min 0,000 mm 1,3 UV-I 495 W/m 3,9 C 1,2 C 19,3 km/h (3 Bft) 98,20 %
07.02.2016 13:15 6,3 C 86 % 1006,8 hPa 0,0 l/m 11,2 km/h (2 Bft) NO 50 5 min 0,000 mm 1,3 UV-I 491 W/m 4,1 C 2,7 C 17,7 km/h (3 Bft) 99,17 %
07.02.2016 13:20 6,4 C 85 % 1006,8 hPa 0,0 l/m 14,0 km/h (3 Bft) NO 34 5 min 0,000 mm 1,2 UV-I 490 W/m 4,1 C 1,3 C 19,3 km/h (3 Bft) 99,15 %
07.02.2016 13:25 6,7 C 86 % 1006,7 hPa 0,0 l/m 9,4 km/h (2 Bft) NO 47 5 min 0,000 mm 1,2 UV-I 496 W/m 4,5 C 4,4 C 19,3 km/h (3 Bft) 100,00 %
07.02.2016 13:30 7,1 C 85 % 1006,6 hPa 0,0 l/m 8,4 km/h (2 Bft) NO 54 5 min 0,000 mm 1,2 UV-I 476 W/m 4,8 C 5,5 C 19,3 km/h (3 Bft) 98,39 %
07.02.2016 13:35 6,9 C 85 % 1006,4 hPa 0,0 l/m 11,3 km/h (2 Bft) NO 55 5 min 0,000 mm 1,1 UV-I 398 W/m 4,6 C 3,4 C 19,3 km/h (3 Bft) 98,17 %
07.02.2016 13:40 7,0 C 84 % 1006,3 hPa 0,0 l/m 10,7 km/h (2 Bft) O 94 5 min 0,000 mm 1,0 UV-I 345 W/m 4,5 C 3,8 C 17,7 km/h (3 Bft) 100,00 %
07.02.2016 13:45 7,2 C 85 % 1006,2 hPa 0,0 l/m 10,1 km/h (2 Bft) NO 44 5 min 0,000 mm 1,0 UV-I 339 W/m 4,9 C 4,4 C 16,1 km/h (3 Bft) 100,00 %
07.02.2016 13:50 7,2 C 84 % 1006,1 hPa 0,0 l/m 8,3 km/h (2 Bft) NO 53 5 min 0,000 mm 1,0 UV-I 408 W/m 4,7 C 5,7 C 16,1 km/h (3 Bft) 98,37 %
07.02.2016 13:55 7,4 C 82 % 1006,0 hPa 0,0 l/m 10,0 km/h (2 Bft) NO 55 5 min 0,000 mm 1,0 UV-I 391 W/m 4,5 C 4,7 C 14,5 km/h (3 Bft) 100,00 %
07.02.2016 14:00 7,5 C 82 % 1006,0 hPa 0,0 l/m 11,2 km/h (2 Bft) O-NO 65 5 min 0,203 mm 0,9 UV-I 352 W/m 4,6 C 4,1 C 20,9 km/h (4 Bft) 100,00 %
07.02.2016 14:05 7,3 C 83 % 1006,1 hPa 0,0 l/m 12,9 km/h (3 Bft) NO 43 5 min 0,000 mm 0,8 UV-I 261 W/m 4,6 C 2,9 C 20,9 km/h (4 Bft) 99,12 %
07.02.2016 14:10 7,3 C 84 % 1006,1 hPa 0,0 l/m 10,4 km/h (2 Bft) NO 39 0 min 0,000 mm 0,7 UV-I 201 W/m 4,8 C 4,4 C 17,7 km/h (3 Bft) 100,00 %
07.02.2016 14:15 7,3 C 83 % 1005,9 hPa 0,0 l/m 9,9 km/h (2 Bft) O 90 0 min 0,000 mm 0,7 UV-I 203 W/m 4,6 C 4,7 C 16,1 km/h (3 Bft) 96,69 %
07.02.2016 14:20 7,4 C 83 % 1005,9 hPa 0,0 l/m 10,2 km/h (2 Bft) NO 53 5 min 0,000 mm 0,7 UV-I 279 W/m 4,7 C 4,6 C 16,1 km/h (3 Bft) 96,67 %
07.02.2016 14:25 7,7 C 82 % 1006,1 hPa 0,0 l/m 8,9 km/h (2 Bft) NO 45 5 min 0,000 mm 0,7 UV-I 340 W/m 4,8 C 5,8 C 16,1 km/h (3 Bft) 95,54 %
07.02.2016 14:30 7,8 C 82 % 1006,0 hPa 0,0 l/m 8,3 km/h (2 Bft) O-NO 71 5 min 0,000 mm 0,7 UV-I 289 W/m 4,9 C 6,3 C 16,1 km/h (3 Bft) 96,49 %
07.02.2016 14:35 7,9 C 81 % 1005,9 hPa 0,0 l/m 9,7 km/h (2 Bft) NO 53 5 min 0,000 mm 0,7 UV-I 350 W/m 4,8 C 5,5 C 16,1 km/h (3 Bft) 95,97 %
07.02.2016 14:40 7,9 C 82 % 1005,9 hPa 0,0 l/m 9,5 km/h (2 Bft) O-NO 61 5 min 0,000 mm 0,7 UV-I 345 W/m 5,0 C 5,6 C 16,1 km/h (3 Bft) 98,35 %
07.02.2016 14:45 8,1 C 82 % 1005,8 hPa 0,0 l/m 7,5 km/h (2 Bft) O-NO 61 0 min 0,000 mm 0,5 UV-I 170 W/m 5,2 C 7,2 C 14,5 km/h (3 Bft) 98,25 %
07.02.2016 14:50 7,8 C 81 % 1005,9 hPa 0,0 l/m 8,8 km/h (2 Bft) NO 46 0 min 0,000 mm 0,5 UV-I 98 W/m 4,7 C 6,0 C 14,5 km/h (3 Bft) 98,31 %
07.02.2016 14:55 7,6 C 84 % 1005,9 hPa 0,0 l/m 6,7 km/h (2 Bft) N-NO 30 0 min 0,000 mm 0,0 UV-I 92 W/m 5,1 C 7,4 C 14,5 km/h (3 Bft) 99,08 %
07.02.2016 15:00 7,4 C 84 % 1005,7 hPa 0,0 l/m 5,7 km/h (1 Bft) O-NO 63 0 min 0,102 mm 0,0 UV-I 85 W/m 4,9 C 7,4 C 9,7 km/h (2 Bft) 100,00 %
07.02.2016 15:05 7,4 C 84 % 1005,8 hPa 0,0 l/m 6,7 km/h (2 Bft) NO 42 0 min 0,000 mm 0,0 UV-I 59 W/m 4,9 C 7,2 C 12,9 km/h (3 Bft) 99,21 %
07.02.2016 15:10 7,3 C 85 % 1005,8 hPa 0,0 l/m 5,1 km/h (1 Bft) N-NO 23 0 min 0,000 mm 0,0 UV-I 43 W/m 4,9 C 7,3 C 8,0 km/h (2 Bft) 99,12 %
07.02.2016 15:15 7,3 C 84 % 1005,8 hPa 0,0 l/m 6,0 km/h (2 Bft) O-NO 57 0 min 0,000 mm 0,0 UV-I 46 W/m 4,8 C 7,3 C 9,7 km/h (2 Bft) 99,13 %
07.02.2016 15:20 7,3 C 85 % 1005,7 hPa 0,0 l/m 4,7 km/h (1 Bft) NO 40 0 min 0,000 mm 0,0 UV-I 52 W/m 4,9 C 7,3 C 8,0 km/h (2 Bft) 100,00 %
07.02.2016 15:25 7,2 C 86 % 1005,7 hPa 0,0 l/m 5,0 km/h (1 Bft) NO 34 0 min 0,000 mm 0,0 UV-I 62 W/m 5,0 C 7,2 C 8,0 km/h (2 Bft) 99,12 %
07.02.2016 15:30 7,2 C 86 % 1005,7 hPa 0,0 l/m 5,5 km/h (1 Bft) O-NO 77 0 min 0,000 mm 0,0 UV-I 66 W/m 5,0 C 7,2 C 11,3 km/h (2 Bft) 99,13 %
07.02.2016 15:35 7,2 C 86 % 1005,8 hPa 0,0 l/m 2,2 km/h (1 Bft) NO 56 0 min 0,000 mm 0,0 UV-I 62 W/m 5,0 C 7,2 C 6,4 km/h (2 Bft) 98,31 %
07.02.2016 15:40 7,3 C 86 % 1005,9 hPa 0,0 l/m 3,2 km/h (1 Bft) NO 56 0 min 0,000 mm 0,0 UV-I 63 W/m 5,1 C 7,3 C 4,8 km/h (1 Bft) 100,00 %
07.02.2016 15:45 7,2 C 86 % 1005,7 hPa 0,0 l/m 4,5 km/h (1 Bft) O 101 0 min 0,000 mm 0,0 UV-I 68 W/m 5,0 C 7,2 C 8,0 km/h (2 Bft) 100,00 %
07.02.2016 15:50 7,2 C 86 % 1005,6 hPa 0,0 l/m 5,6 km/h (1 Bft) O-SO 106 0 min 0,000 mm 0,0 UV-I 73 W/m 5,0 C 7,2 C 9,7 km/h (2 Bft) 100,00 %
07.02.2016 15:55 7,3 C 84 % 1005,5 hPa 0,0 l/m 3,7 km/h (1 Bft) O-NO 75 0 min 0,000 mm 0,0 UV-I 78 W/m 4,8 C 7,3 C 8,0 km/h (2 Bft) 100,00 %
07.02.2016 16:00 7,3 C 85 % 1005,7 hPa 0,0 l/m 2,2 km/h (1 Bft) N-NO 24 0 min 0,025 mm 0,0 UV-I 78 W/m 4,9 C 7,3 C 8,0 km/h (2 Bft) 99,15 %
07.02.2016 16:05 7,2 C 86 % 1005,9 hPa 0,0 l/m 0,3 km/h (0 Bft) N-NO 24 0 min 0,000 mm 0,0 UV-I 72 W/m 5,0 C 7,2 C 1,6 km/h (1 Bft) 97,50 %
07.02.2016 16:10 7,2 C 86 % 1005,9 hPa 0,0 l/m 0,0 km/h (0 Bft) N-NO 24 0 min 0,000 mm 0,0 UV-I 62 W/m 5,0 C 7,2 C 0,0 km/h (0 Bft) 95,65 %
07.02.2016 16:15 7,2 C 85 % 1005,8 hPa 0,0 l/m 2,3 km/h (1 Bft) O-NO 57 0 min 0,000 mm 0,0 UV-I 53 W/m 4,9 C 7,2 C 4,8 km/h (1 Bft) 96,69 %
07.02.2016 16:20 7,1 C 86 % 1006,0 hPa 0,0 l/m 1,8 km/h (1 Bft) N 11 0 min 0,000 mm 0,0 UV-I 47 W/m 4,9 C 7,1 C 3,2 km/h (1 Bft) 98,10 %
07.02.2016 16:25 7,0 C 86 % 1005,9 hPa 0,0 l/m 0,0 km/h (0 Bft) N 11 0 min 0,000 mm 0,0 UV-I 42 W/m 4,8 C 7,0 C 1,6 km/h (1 Bft) 96,85 %
07.02.2016 16:30 6,8 C 86 % 1006,0 hPa 0,0 l/m 0,0 km/h (0 Bft) N 11 0 min 0,000 mm 0,0 UV-I 40 W/m 4,6 C 6,8 C 0,0 km/h (0 Bft) 97,32 %
07.02.2016 16:35 6,6 C 87 % 1006,2 hPa 0,0 l/m 0,0 km/h (0 Bft) N 11 0 min 0,000 mm 0,0 UV-I 38 W/m 4,6 C 6,6 C 0,0 km/h (0 Bft) 97,56 %
07.02.2016 16:40 6,5 C 88 % 1006,2 hPa 0,0 l/m 0,8 km/h (0 Bft) N 11 0 min 0,000 mm 0,0 UV-I 32 W/m 4,7 C 6,5 C 3,2 km/h (1 Bft) 99,17 %
07.02.2016 16:45 6,4 C 88 % 1006,3 hPa 0,0 l/m 1,5 km/h (1 Bft) N 11 0 min 0,000 mm 0,0 UV-I 26 W/m 4,6 C 6,4 C 3,2 km/h (1 Bft) 99,10 %
07.02.2016 16:50 6,2 C 89 % 1006,3 hPa 0,0 l/m 0,2 km/h (0 Bft) N 11 0 min 0,000 mm 0,0 UV-I 19 W/m 4,5 C 6,2 C 1,6 km/h (1 Bft) 99,15 %
07.02.2016 16:55 5,9 C 90 % 1006,3 hPa 0,0 l/m 0,1 km/h (0 Bft) N 11 0 min 0,000 mm 0,0 UV-I 14 W/m 4,4 C 5,9 C 1,6 km/h (1 Bft) 99,15 %
07.02.2016 17:00 6,1 C 89 % 1006,3 hPa 0,0 l/m 1,0 km/h (0 Bft) N 11 5 min 0,026 mm 0,0 UV-I 10 W/m 4,4 C 6,1 C 3,2 km/h (1 Bft) 100,00 %
07.02.2016 17:05 6,0 C 89 % 1006,2 hPa 0,0 l/m 0,1 km/h (0 Bft) N 11 0 min 0,000 mm 0,0 UV-I 7 W/m 4,3 C 6,0 C 1,6 km/h (1 Bft) 99,21 %
07.02.2016 17:10 5,9 C 89 % 1006,2 hPa 0,0 l/m 0,0 km/h (0 Bft) N 11 0 min 0,000 mm 0,0 UV-I 4 W/m 4,2 C 5,9 C 1,6 km/h (1 Bft) 98,29 %
07.02.2016 17:15 5,5 C 90 % 1006,5 hPa 0,0 l/m 0,1 km/h (0 Bft) N 11 0 min 0,000 mm 0,0 UV-I 0 W/m 4,0 C 5,5 C 1,6 km/h (1 Bft) 100,00 %
07.02.2016 17:20 5,2 C 91 % 1006,4 hPa 0,0 l/m 0,0 km/h (0 Bft) N 11 0 min 0,000 mm 0,0 UV-I 0 W/m 3,9 C 5,2 C 0,0 km/h (0 Bft) 97,52 %
07.02.2016 17:25 5,0 C 92 % 1006,6 hPa 0,0 l/m 0,9 km/h (0 Bft) N-NO 31 0 min 0,000 mm 0,0 UV-I 0 W/m 3,8 C 5,0 C 3,2 km/h (1 Bft) 98,33 %
07.02.2016 17:30 4,8 C 92 % 1006,7 hPa 0,0 l/m 2,6 km/h (1 Bft) S 172 0 min 0,000 mm 0,0 UV-I 0 W/m 3,6 C 4,8 C 4,8 km/h (1 Bft) 100,00 %
07.02.2016 17:35 4,7 C 92 % 1006,7 hPa 0,0 l/m 3,3 km/h (1 Bft) S 173 0 min 0,000 mm 0,0 UV-I 0 W/m 3,5 C 4,7 C 4,8 km/h (1 Bft) 100,00 %
07.02.2016 17:40 4,6 C 93 % 1006,8 hPa 0,0 l/m 2,6 km/h (1 Bft) S 173 0 min 0,000 mm 0,0 UV-I 0 W/m 3,6 C 4,6 C 4,8 km/h (1 Bft) 99,11 %
07.02.2016 17:45 4,6 C 93 % 1006,7 hPa 0,0 l/m 4,1 km/h (1 Bft) S 171 0 min 0,000 mm 0,0 UV-I 0 W/m 3,6 C 4,6 C 8,0 km/h (2 Bft) 97,52 %
07.02.2016 17:50 4,6 C 93 % 1006,8 hPa 0,0 l/m 3,0 km/h (1 Bft) S 171 0 min 0,000 mm 0,0 UV-I 0 W/m 3,6 C 4,6 C 6,4 km/h (2 Bft) 99,06 %
07.02.2016 17:55 4,4 C 93 % 1006,8 hPa 0,0 l/m 1,7 km/h (1 Bft) S 171 0 min 0,000 mm 0,0 UV-I 0 W/m 3,4 C 4,4 C 6,4 km/h (2 Bft) 100,00 %
07.02.2016 18:00 4,4 C 93 % 1006,8 hPa 0,0 l/m 1,2 km/h (1 Bft) S 171 0 min 0,000 mm 0,0 UV-I 0 W/m 3,4 C 4,4 C 1,6 km/h (1 Bft) 99,17 %
07.02.2016 18:05 4,3 C 94 % 1006,8 hPa 0,0 l/m 1,1 km/h (1 Bft) S 170 0 min 0,000 mm 0,0 UV-I 0 W/m 3,4 C 4,3 C 3,2 km/h (1 Bft) 100,00 %
07.02.2016 18:10 4,3 C 94 % 1006,9 hPa 0,0 l/m 1,6 km/h (1 Bft) S 169 0 min 0,000 mm 0,0 UV-I 0 W/m 3,4 C 4,3 C 6,4 km/h (2 Bft) 97,39 %
07.02.2016 18:15 4,2 C 94 % 1006,9 hPa 0,0 l/m 2,1 km/h (1 Bft) S 169 0 min 0,000 mm 0,0 UV-I 0 W/m 3,3 C 4,2 C 6,4 km/h (2 Bft) 97,58 %
07.02.2016 18:20 3,8 C 93 % 1006,9 hPa 0,0 l/m 1,6 km/h (1 Bft) S 169 0 min 0,000 mm 0,0 UV-I 0 W/m 2,8 C 3,8 C 6,4 km/h (2 Bft) 97,37 %
07.02.2016 18:25 3,7 C 95 % 1007,0 hPa 0,0 l/m 2,1 km/h (1 Bft) S 169 0 min 0,000 mm 0,0 UV-I 0 W/m 3,0 C 3,7 C 6,4 km/h (2 Bft) 96,69 %
07.02.2016 18:30 3,7 C 95 % 1007,0 hPa 0,0 l/m 2,2 km/h (1 Bft) S 169 0 min 0,000 mm 0,0 UV-I 0 W/m 3,0 C 3,7 C 3,2 km/h (1 Bft) 96,23 %
07.02.2016 18:35 3,6 C 95 % 1007,0 hPa 0,0 l/m 3,4 km/h (1 Bft) S 169 0 min 0,000 mm 0,0 UV-I 0 W/m 2,9 C 3,6 C 6,4 km/h (2 Bft) 96,83 %
07.02.2016 18:40 3,5 C 95 % 1007,0 hPa 0,0 l/m 4,2 km/h (1 Bft) S-SO 168 0 min 0,000 mm 0,0 UV-I 0 W/m 2,8 C 3,5 C 6,4 km/h (2 Bft) 97,39 %
07.02.2016 18:45 3,4 C 95 % 1007,0 hPa 0,0 l/m 3,0 km/h (1 Bft) S-SO 168 0 min 0,000 mm 0,0 UV-I 0 W/m 2,7 C 3,4 C 6,4 km/h (2 Bft) 98,25 %
07.02.2016 18:50 3,4 C 95 % 1007,0 hPa 0,0 l/m 1,5 km/h (1 Bft) S-SO 168 0 min 0,000 mm 0,0 UV-I 0 W/m 2,7 C 3,4 C 3,2 km/h (1 Bft) 99,19 %
07.02.2016 18:55 3,5 C 95 % 1007,1 hPa 0,0 l/m 1,5 km/h (1 Bft) S-SO 168 0 min 0,000 mm 0,0 UV-I 0 W/m 2,8 C 3,5 C 3,2 km/h (1 Bft) 100,00 %
07.02.2016 19:00 3,5 C 95 % 1007,1 hPa 0,0 l/m 0,5 km/h (0 Bft) S-SO 168 0 min 0,000 mm 0,0 UV-I 0 W/m 2,8 C 3,5 C 1,6 km/h (1 Bft) 97,30 %
07.02.2016 19:05 3,5 C 95 % 1007,2 hPa 0,0 l/m 1,0 km/h (0 Bft) S-SO 168 0 min 0,000 mm 0,0 UV-I 0 W/m 2,8 C 3,5 C 3,2 km/h (1 Bft) 99,21 %
07.02.2016 19:10 3,5 C 95 % 1007,3 hPa 0,0 l/m 0,5 km/h (0 Bft) W-SW 248 0 min 0,000 mm 0,0 UV-I 0 W/m 2,8 C 3,5 C 4,8 km/h (1 Bft) 100,00 %
07.02.2016 19:15 3,4 C 95 % 1007,3 hPa 0,0 l/m 0,8 km/h (0 Bft) W 261 0 min 0,000 mm 0,0 UV-I 0 W/m 2,7 C 3,4 C 4,8 km/h (1 Bft) 100,00 %
07.02.2016 19:20 3,0 C 95 % 1007,4 hPa 0,0 l/m 3,0 km/h (1 Bft) S 184 0 min 0,000 mm 0,0 UV-I 0 W/m 2,3 C 3,0 C 6,4 km/h (2 Bft) 99,15 %
07.02.2016 19:25 2,9 C 96 % 1007,5 hPa 0,0 l/m 1,0 km/h (0 Bft) S 184 0 min 0,000 mm 0,0 UV-I 0 W/m 2,3 C 2,9 C 3,2 km/h (1 Bft) 99,21 %
07.02.2016 19:30 3,1 C 96 % 1007,6 hPa 0,0 l/m 2,2 km/h (1 Bft) S 184 0 min 0,000 mm 0,0 UV-I 0 W/m 2,5 C 3,1 C 3,2 km/h (1 Bft) 100,00 %
07.02.2016 19:35 3,1 C 96 % 1007,6 hPa 0,0 l/m 2,1 km/h (1 Bft) S 184 0 min 0,000 mm 0,0 UV-I 0 W/m 2,5 C 3,1 C 3,2 km/h (1 Bft) 100,00 %
07.02.2016 19:40 2,9 C 96 % 1007,6 hPa 0,0 l/m 1,6 km/h (1 Bft) S 184 0 min 0,000 mm 0,0 UV-I 0 W/m 2,3 C 2,9 C 3,2 km/h (1 Bft) 99,20 %
07.02.2016 19:45 2,9 C 96 % 1007,6 hPa 0,0 l/m 2,3 km/h (1 Bft) S 184 0 min 0,000 mm 0,0 UV-I 0 W/m 2,3 C 2,9 C 3,2 km/h (1 Bft) 99,08 %
07.02.2016 19:50 2,9 C 96 % 1007,9 hPa 0,0 l/m 3,1 km/h (1 Bft) S-SW 212 0 min 0,000 mm 0,0 UV-I 0 W/m 2,3 C 2,9 C 4,8 km/h (1 Bft) 99,19 %
07.02.2016 19:55 2,8 C 96 % 1008,8 hPa 0,0 l/m 10,2 km/h (2 Bft) W 279 0 min 0,000 mm 0,0 UV-I 0 W/m 2,2 C -0,5 C 20,9 km/h (4 Bft) 100,00 %
07.02.2016 20:00 3,3 C 97 % 1008,7 hPa 0,0 l/m 2,4 km/h (1 Bft) W-SW 255 0 min 0,000 mm 0,0 UV-I 0 W/m 2,9 C 3,3 C 4,8 km/h (1 Bft) 98,26 %
07.02.2016 20:05 3,4 C 96 % 1008,9 hPa 0,0 l/m 4,3 km/h (1 Bft) W-SW 251 0 min 0,000 mm 0,0 UV-I 0 W/m 2,8 C 3,4 C 8,0 km/h (2 Bft) 99,15 %
07.02.2016 20:10 3,4 C 96 % 1008,9 hPa 0,0 l/m 3,5 km/h (1 Bft) W-NW 285 0 min 0,000 mm 0,0 UV-I 0 W/m 2,8 C 3,4 C 9,7 km/h (2 Bft) 99,17 %
07.02.2016 20:15 3,4 C 95 % 1009,1 hPa 0,0 l/m 3,7 km/h (1 Bft) SW 227 0 min 0,000 mm 0,0 UV-I 0 W/m 2,7 C 3,4 C 6,4 km/h (2 Bft) 99,08 %
07.02.2016 20:20 3,2 C 95 % 1009,2 hPa 0,0 l/m 4,3 km/h (1 Bft) SW 228 0 min 0,000 mm 0,0 UV-I 0 W/m 2,5 C 3,2 C 6,4 km/h (2 Bft) 96,75 %
07.02.2016 20:25 3,1 C 95 % 1009,3 hPa 0,0 l/m 3,8 km/h (1 Bft) W-SW 237 0 min 0,000 mm 0,0 UV-I 0 W/m 2,4 C 3,1 C 8,0 km/h (2 Bft) 96,43 %
07.02.2016 20:30 3,1 C 95 % 1009,5 hPa 0,0 l/m 6,3 km/h (2 Bft) SW 227 0 min 0,000 mm 0,0 UV-I 0 W/m 2,4 C 3,1 C 9,7 km/h (2 Bft) 97,56 %
07.02.2016 20:35 3,3 C 96 % 1009,7 hPa 0,0 l/m 6,1 km/h (2 Bft) W-SW 252 0 min 0,000 mm 0,0 UV-I 0 W/m 2,7 C 3,3 C 11,3 km/h (2 Bft) 96,61 %
07.02.2016 20:40 3,6 C 95 % 1009,8 hPa 0,0 l/m 6,0 km/h (2 Bft) W 279 0 min 0,000 mm 0,0 UV-I 0 W/m 2,9 C 3,6 C 9,7 km/h (2 Bft) 96,52 %
07.02.2016 20:45 4,2 C 94 % 1009,8 hPa 0,0 l/m 6,7 km/h (2 Bft) W 266 0 min 0,000 mm 0,0 UV-I 0 W/m 3,3 C 3,9 C 16,1 km/h (3 Bft) 96,40 %
07.02.2016 20:50 5,1 C 90 % 1009,9 hPa 0,0 l/m 10,6 km/h (2 Bft) W 261 0 min 0,000 mm 0,0 UV-I 0 W/m 3,6 C 1,8 C 17,7 km/h (3 Bft) 95,97 %
07.02.2016 20:55 5,1 C 87 % 1010,0 hPa 0,0 l/m 8,3 km/h (2 Bft) S-SW 207 0 min 0,000 mm 0,0 UV-I 0 W/m 3,1 C 3,5 C 12,9 km/h (3 Bft) 98,17 %
07.02.2016 21:00 4,6 C 89 % 1010,1 hPa 0,0 l/m 10,1 km/h (2 Bft) S-SW 209 0 min 0,000 mm 0,0 UV-I 0 W/m 2,9 C 1,6 C 16,1 km/h (3 Bft) 98,37 %
07.02.2016 21:05 4,6 C 89 % 1010,3 hPa 0,0 l/m 10,9 km/h (2 Bft) SW 221 0 min 0,000 mm 0,0 UV-I 0 W/m 2,9 C 1,0 C 16,1 km/h (3 Bft) 99,13 %
07.02.2016 21:10 4,7 C 89 % 1010,6 hPa 0,0 l/m 10,2 km/h (2 Bft) S-SW 194 0 min 0,000 mm 0,0 UV-I 0 W/m 3,0 C 1,6 C 14,5 km/h (3 Bft) 100,00 %
07.02.2016 21:15 5,1 C 88 % 1010,7 hPa 0,0 l/m 9,4 km/h (2 Bft) S-SW 200 0 min 0,000 mm 0,0 UV-I 0 W/m 3,3 C 2,6 C 14,5 km/h (3 Bft) 100,00 %
07.02.2016 21:20 5,3 C 87 % 1010,9 hPa 0,0 l/m 8,2 km/h (2 Bft) SW 229 0 min 0,000 mm 0,0 UV-I 0 W/m 3,3 C 3,8 C 14,5 km/h (3 Bft) 98,35 %
07.02.2016 21:25 5,4 C 86 % 1011,0 hPa 0,0 l/m 12,1 km/h (2 Bft) W-SW 243 0 min 0,000 mm 0,0 UV-I 0 W/m 3,3 C 1,2 C 20,9 km/h (4 Bft) 100,00 %
07.02.2016 21:30 5,4 C 86 % 1011,0 hPa 0,0 l/m 11,6 km/h (2 Bft) SW 217 0 min 0,000 mm 0,0 UV-I 0 W/m 3,3 C 1,5 C 17,7 km/h (3 Bft) 99,13 %
07.02.2016 21:35 5,5 C 87 % 1011,1 hPa 0,0 l/m 11,5 km/h (2 Bft) SW 216 0 min 0,000 mm 0,0 UV-I 0 W/m 3,5 C 1,6 C 16,1 km/h (3 Bft) 100,00 %
07.02.2016 21:40 5,7 C 86 % 1011,2 hPa 0,0 l/m 10,8 km/h (2 Bft) S-SW 208 0 min 0,000 mm 0,0 UV-I 0 W/m 3,5 C 2,3 C 19,3 km/h (3 Bft) 100,00 %
07.02.2016 21:45 5,9 C 85 % 1011,3 hPa 0,0 l/m 8,9 km/h (2 Bft) W-SW 244 0 min 0,000 mm 0,0 UV-I 0 W/m 3,6 C 3,9 C 14,5 km/h (3 Bft) 100,00 %
07.02.2016 21:50 5,9 C 85 % 1011,5 hPa 0,0 l/m 9,4 km/h (2 Bft) SW 224 0 min 0,000 mm 0,0 UV-I 0 W/m 3,6 C 3,5 C 16,1 km/h (3 Bft) 100,00 %
07.02.2016 21:55 5,7 C 85 % 1011,6 hPa 0,0 l/m 10,5 km/h (2 Bft) SW 223 0 min 0,000 mm 0,0 UV-I 0 W/m 3,4 C 2,5 C 14,5 km/h (3 Bft) 99,21 %
07.02.2016 22:00 5,8 C 86 % 1011,6 hPa 0,0 l/m 12,2 km/h (2 Bft) SW 225 0 min 0,025 mm 0,0 UV-I 0 W/m 3,6 C 1,6 C 17,7 km/h (3 Bft) 100,00 %
07.02.2016 22:05 5,9 C 85 % 1011,8 hPa 0,0 l/m 15,4 km/h (3 Bft) W-SW 238 0 min 0,000 mm 0,0 UV-I 0 W/m 3,6 C -0,0 C 22,5 km/h (4 Bft) 99,12 %
07.02.2016 22:10 6,2 C 85 % 1011,7 hPa 0,0 l/m 14,5 km/h (3 Bft) SW 217 0 min 0,000 mm 0,0 UV-I 0 W/m 3,9 C 0,8 C 22,5 km/h (4 Bft) 99,15 %
07.02.2016 22:15 6,3 C 85 % 1011,8 hPa 0,0 l/m 13,3 km/h (3 Bft) S-SW 206 0 min 0,000 mm 0,0 UV-I 0 W/m 4,0 C 1,5 C 20,9 km/h (4 Bft) 100,00 %
07.02.2016 22:20 6,3 C 84 % 1011,9 hPa 0,0 l/m 13,3 km/h (3 Bft) SW 235 0 min 0,000 mm 0,0 UV-I 0 W/m 3,8 C 1,5 C 19,3 km/h (3 Bft) 99,15 %
07.02.2016 22:25 6,2 C 84 % 1011,9 hPa 0,0 l/m 11,3 km/h (2 Bft) W-SW 248 0 min 0,000 mm 0,0 UV-I 0 W/m 3,7 C 2,6 C 16,1 km/h (3 Bft) 98,26 %
07.02.2016 22:30 6,2 C 84 % 1012,1 hPa 0,0 l/m 8,2 km/h (2 Bft) W-SW 244 0 min 0,000 mm 0,0 UV-I 0 W/m 3,7 C 4,7 C 12,9 km/h (3 Bft) 97,17 %
07.02.2016 22:35 5,9 C 85 % 1012,0 hPa 0,0 l/m 6,0 km/h (2 Bft) W-SW 252 0 min 0,000 mm 0,0 UV-I 0 W/m 3,6 C 5,9 C 9,7 km/h (2 Bft) 96,75 %
07.02.2016 22:40 5,8 C 85 % 1012,1 hPa 0,0 l/m 5,5 km/h (1 Bft) SW 230 0 min 0,000 mm 0,0 UV-I 0 W/m 3,5 C 5,8 C 9,7 km/h (2 Bft) 97,58 %
07.02.2016 22:45 5,5 C 86 % 1012,1 hPa 0,0 l/m 6,0 km/h (2 Bft) SW 232 0 min 0,000 mm 0,0 UV-I 0 W/m 3,3 C 5,5 C 9,7 km/h (2 Bft) 96,40 %
07.02.2016 22:50 5,6 C 86 % 1012,2 hPa 0,0 l/m 6,3 km/h (2 Bft) S-SW 203 0 min 0,000 mm 0,0 UV-I 0 W/m 3,4 C 5,6 C 12,9 km/h (3 Bft) 95,97 %
07.02.2016 22:55 5,7 C 86 % 1012,3 hPa 0,0 l/m 6,5 km/h (2 Bft) S-SW 205 0 min 0,000 mm 0,0 UV-I 0 W/m 3,5 C 5,6 C 9,7 km/h (2 Bft) 97,32 %
07.02.2016 23:00 5,9 C 85 % 1012,3 hPa 0,0 l/m 6,6 km/h (2 Bft) S 188 0 min 0,000 mm 0,0 UV-I 0 W/m 3,6 C 5,8 C 12,9 km/h (3 Bft) 98,15 %
07.02.2016 23:05 6,1 C 85 % 1012,3 hPa 0,0 l/m 6,2 km/h (2 Bft) S-SW 196 0 min 0,025 mm 0,0 UV-I 0 W/m 3,8 C 6,1 C 11,3 km/h (2 Bft) 97,69 %
07.02.2016 23:10 6,3 C 84 % 1012,4 hPa 0,0 l/m 6,5 km/h (2 Bft) SW 219 0 min 0,000 mm 0,0 UV-I 0 W/m 3,8 C 6,2 C 12,9 km/h (3 Bft) 98,21 %
07.02.2016 23:15 6,2 C 85 % 1012,4 hPa 0,0 l/m 6,3 km/h (2 Bft) S-SW 193 0 min 0,000 mm 0,0 UV-I 0 W/m 3,9 C 6,2 C 11,3 km/h (2 Bft) 100,00 %
07.02.2016 23:20 6,2 C 85 % 1012,5 hPa 0,0 l/m 4,8 km/h (1 Bft) SW 218 0 min 0,000 mm 0,0 UV-I 0 W/m 3,9 C 6,2 C 8,0 km/h (2 Bft) 97,46 %
07.02.2016 23:25 6,1 C 85 % 1012,7 hPa 0,0 l/m 4,3 km/h (1 Bft) SW 215 0 min 0,000 mm 0,0 UV-I 0 W/m 3,8 C 6,1 C 6,4 km/h (2 Bft) 99,19 %
07.02.2016 23:30 6,1 C 85 % 1012,8 hPa 0,0 l/m 5,9 km/h (2 Bft) S-SW 206 0 min 0,000 mm 0,0 UV-I 0 W/m 3,8 C 6,1 C 9,7 km/h (2 Bft) 100,00 %
07.02.2016 23:35 6,1 C 86 % 1012,9 hPa 0,0 l/m 6,7 km/h (2 Bft) SW 225 0 min 0,000 mm 0,0 UV-I 0 W/m 3,9 C 5,9 C 9,7 km/h (2 Bft) 100,00 %
07.02.2016 23:40 5,9 C 86 % 1012,9 hPa 0,0 l/m 6,3 km/h (2 Bft) W-SW 242 0 min 0,000 mm 0,0 UV-I 0 W/m 3,7 C 5,9 C 9,7 km/h (2 Bft) 99,15 %
07.02.2016 23:45 6,0 C 86 % 1013,1 hPa 0,0 l/m 7,9 km/h (2 Bft) W-SW 245 0 min 0,000 mm 0,0 UV-I 0 W/m 3,8 C 4,7 C 14,5 km/h (3 Bft) 100,00 %
07.02.2016 23:50 6,1 C 86 % 1013,1 hPa 0,0 l/m 7,2 km/h (2 Bft) W-SW 241 0 min 0,000 mm 0,0 UV-I 0 W/m 3,9 C 5,4 C 14,5 km/h (3 Bft) 99,15 %
07.02.2016 23:55 6,2 C 85 % 1013,1 hPa 0,0 l/m 6,5 km/h (2 Bft) W-SW 237 0 min 0,000 mm 0,0 UV-I 0 W/m 3,9 C 6,1 C 11,3 km/h (2 Bft) 97,56 %
_ Min-Zeit 07:25 14:35 15:55 - 00:10 - - - - - - 07:25 07:25 00:10 05:45
Minimum _ -2,6 C 81 % 1005,5 hPa - 0,0 km/h (0 Bft) - - - - - - -3,0 C -2,6 C 0,0 km/h (0 Bft) 93,22 %
_ Max-Zeit 14:45 00:05 23:45 00:00 22:05 - - 12:10 14:00 12:20 13:05 14:45 15:00 22:05 00:00
Maximum _ 8,1 C 98 % 1013,1 hPa 0,0 l/m 15,4 km/h
W-SW (3 Bft)
- - 10 min 0,203 mm 1,3 UV-I 501 W/m 5,2 C 7,4 C 22,5 km/h
SW (4 Bft)
100,00 %
Durchschnitt _ 2,5 C 93 % 1008,9 hPa #0,0 l/m 4,6 km/h (1 Bft) NO - #3:25 h #0,787 mm 0,9 UV-I 183 W/m 1,5 C 1,9 C 8,3 km/h (2 Bft) 98,48 %